Time,TemperatureF,DewpointF,PressureIn,WindDirection,WindDirectionDegrees,WindSpeedMPH,WindSpeedGustMPH,Humidity,HourlyPrecipIn,Conditions,Clouds,dailyrainin,SoftwareType,DateUTC
2013-01-18 00:00:00,44.6,34.8,29.96,NNW,338,4.9,9.8,68,0.01,,,0.00,WUHU216HW,2013-01-18 05:00:00,
2013-01-18 00:03:00,44.6,34.8,29.96,NNW,338,7.2,9.8,68,0.01,,,0.00,WUHU216HW,2013-01-18 05:03:00,
2013-01-18 00:08:00,44.6,35.1,29.97,NNE,23,6.3,10.3,69,0.00,,,0.00,WUHU216HW,2013-01-18 05:08:00,
2013-01-18 00:13:00,44.5,34.9,29.98,WNW,293,9.8,14.3,69,0.00,,,0.00,WUHU216HW,2013-01-18 05:13:00,
2013-01-18 00:18:00,44.3,34.7,29.99,North,0,12.8,14.3,69,0.00,,,0.00,WUHU216HW,2013-01-18 05:18:00,
2013-01-18 00:23:00,44.3,34.7,30.00,WNW,293,6.3,13.6,69,0.00,,,0.00,WUHU216HW,2013-01-18 05:23:00,
2013-01-18 00:28:00,43.9,34.5,30.00,North,0,6.3,15.0,69,0.00,,,0.00,WUHU216HW,2013-01-18 05:28:00,
2013-01-18 00:33:00,43.9,34.5,30.00,NNW,338,8.5,15.0,69,0.00,,,0.00,WUHU216HW,2013-01-18 05:33:00,
2013-01-18 00:39:00,43.9,34.5,30.01,NNW,338,7.6,14.5,69,0.00,,,0.00,WUHU216HW,2013-01-18 05:39:00,
2013-01-18 00:44:00,43.9,34.5,30.02,North,0,6.9,14.3,69,0.00,,,0.00,WUHU216HW,2013-01-18 05:44:00,
2013-01-18 00:49:00,43.7,34.3,30.02,NNW,338,8.5,14.3,69,0.00,,,0.00,WUHU216HW,2013-01-18 05:49:00,
2013-01-18 00:54:00,43.6,34.1,30.02,NNW,338,10.3,15.0,69,0.00,,,0.00,WUHU216HW,2013-01-18 05:54:00,
2013-01-18 00:59:00,43.6,34.1,30.03,North,0,11.4,15.0,69,0.00,,,0.00,WUHU216HW,2013-01-18 05:59:00,
2013-01-18 01:04:00,43.6,34.1,30.03,NW,315,9.4,16.3,69,0.00,,,0.00,WUHU216HW,2013-01-18 06:04:00,
2013-01-18 01:09:00,43.6,34.1,30.04,North,0,10.3,16.3,69,0.00,,,0.00,WUHU216HW,2013-01-18 06:09:00,
2013-01-18 01:14:00,43.6,34.1,30.04,NNW,338,10.5,15.4,69,0.00,,,0.00,WUHU216HW,2013-01-18 06:14:00,
2013-01-18 01:19:00,43.6,33.8,30.05,NNW,338,11.4,15.4,68,0.00,,,0.00,WUHU216HW,2013-01-18 06:19:00,
2013-01-18 01:24:00,43.6,33.8,30.05,NW,315,6.5,13.9,68,0.00,,,0.00,WUHU216HW,2013-01-18 06:24:00,
2013-01-18 01:29:00,43.6,34.1,30.06,NNW,338,9.2,15.7,69,0.00,,,0.00,WUHU216HW,2013-01-18 06:29:00,
2013-01-18 01:34:00,43.6,33.8,30.06,NNW,338,13.4,15.7,68,0.00,,,0.00,WUHU216HW,2013-01-18 06:34:00,
2013-01-18 01:39:00,43.4,33.9,30.06,NE,45,8.9,14.5,69,0.00,,,0.00,WUHU216HW,2013-01-18 06:39:00,
2013-01-18 01:44:00,43.4,33.6,30.06,NNW,338,6.3,14.5,68,0.00,,,0.00,WUHU216HW,2013-01-18 06:44:00,
2013-01-18 01:49:00,43.4,33.9,30.07,NNW,338,7.6,14.3,69,0.00,,,0.00,WUHU216HW,2013-01-18 06:49:00,
2013-01-18 01:54:00,43.0,33.6,30.07,NE,45,11.4,13.9,69,0.00,,,0.00,WUHU216HW,2013-01-18 06:54:00,
2013-01-18 01:59:00,42.8,33.5,30.08,NW,315,7.6,13.9,69,0.00,,,0.00,WUHU216HW,2013-01-18 06:59:00,
2013-01-18 02:04:00,42.7,33.3,30.08,NNW,338,11.9,13.9,69,0.00,,,0.00,WUHU216HW,2013-01-18 07:04:00,
2013-01-18 02:09:00,42.5,33.1,30.09,WSW,248,12.1,14.1,69,0.00,,,0.00,WUHU216HW,2013-01-18 07:09:00,
2013-01-18 02:15:00,42.5,33.1,30.09,North,0,8.1,14.1,69,0.00,,,0.00,WUHU216HW,2013-01-18 07:15:00,
2013-01-18 02:20:00,42.5,33.1,30.09,North,0,7.4,14.1,69,0.00,,,0.00,WUHU216HW,2013-01-18 07:20:00,
2013-01-18 02:25:00,42.3,33.0,30.10,NW,315,14.3,14.3,69,0.00,,,0.00,WUHU216HW,2013-01-18 07:25:00,
2013-01-18 02:30:00,42.3,33.0,30.10,NNW,338,9.2,14.3,69,0.00,,,0.00,WUHU216HW,2013-01-18 07:30:00,
2013-01-18 02:35:00,42.1,32.8,30.10,North,0,10.5,13.6,69,0.00,,,0.00,WUHU216HW,2013-01-18 07:35:00,
2013-01-18 02:40:00,42.1,32.8,30.10,WSW,248,9.8,13.6,69,0.00,,,0.00,WUHU216HW,2013-01-18 07:40:00,
2013-01-18 02:45:00,41.9,32.6,30.11,NNW,338,4.9,13.6,69,0.00,,,0.00,WUHU216HW,2013-01-18 07:45:00,
2013-01-18 02:50:00,41.9,32.1,30.10,North,0,8.5,13.6,68,0.00,,,0.00,WUHU216HW,2013-01-18 07:50:00,
2013-01-18 02:55:00,41.8,32.0,30.11,North,0,4.0,13.6,68,0.00,,,0.00,WUHU216HW,2013-01-18 07:55:00,
2013-01-18 03:00:00,41.8,32.0,30.12,NNW,338,7.8,15.0,68,0.00,,,0.00,WUHU216HW,2013-01-18 08:00:00,
2013-01-18 03:05:00,41.8,32.0,30.13,North,0,5.6,15.0,68,0.00,,,0.00,WUHU216HW,2013-01-18 08:05:00,
2013-01-18 03:10:00,41.8,32.0,30.14,NNW,338,7.8,11.4,68,0.00,,,0.00,WUHU216HW,2013-01-18 08:10:00,
2013-01-18 03:15:00,41.8,32.0,30.15,NNW,338,9.4,12.1,68,0.00,,,0.00,WUHU216HW,2013-01-18 08:15:00,
2013-01-18 03:20:00,41.9,32.1,30.16,NE,45,8.9,12.1,68,0.00,,,0.00,WUHU216HW,2013-01-18 08:20:00,
2013-01-18 03:25:00,42.1,32.3,30.17,NNW,338,11.4,15.0,68,0.00,,,0.00,WUHU216HW,2013-01-18 08:25:00,
2013-01-18 03:30:00,42.1,32.3,30.18,West,270,6.9,15.0,68,0.00,,,0.00,WUHU216HW,2013-01-18 08:30:00,
2013-01-18 03:35:00,42.1,32.3,30.18,NNW,338,9.2,14.3,68,0.00,,,0.00,WUHU216HW,2013-01-18 08:35:00,
2013-01-18 03:40:00,42.3,32.5,30.18,NNE,23,12.5,14.3,68,0.00,,,0.00,WUHU216HW,2013-01-18 08:40:00,
2013-01-18 03:45:00,42.1,32.3,30.19,North,0,6.0,12.5,68,0.00,,,0.00,WUHU216HW,2013-01-18 08:45:00,
2013-01-18 03:51:00,42.1,32.3,30.19,North,0,11.2,14.5,68,0.00,,,0.00,WUHU216HW,2013-01-18 08:51:00,
2013-01-18 03:56:00,41.9,31.8,30.20,North,0,7.2,15.7,67,0.00,,,0.00,WUHU216HW,2013-01-18 08:56:00,
2013-01-18 04:01:00,41.8,31.6,30.20,NNW,338,9.4,17.2,67,0.00,,,0.00,WUHU216HW,2013-01-18 09:01:00,
2013-01-18 04:06:00,41.8,31.6,30.20,WSW,248,10.3,17.2,67,0.00,,,0.00,WUHU216HW,2013-01-18 09:06:00,
2013-01-18 04:11:00,41.6,31.4,30.20,NW,315,8.3,16.8,67,0.00,,,0.00,WUHU216HW,2013-01-18 09:11:00,
2013-01-18 04:16:00,41.6,31.4,30.20,NNW,338,8.5,12.3,67,0.00,,,0.00,WUHU216HW,2013-01-18 09:16:00,
2013-01-18 04:21:00,41.4,31.2,30.20,NNW,338,13.4,13.4,67,0.00,,,0.00,WUHU216HW,2013-01-18 09:21:00,
2013-01-18 04:26:00,41.2,31.1,30.20,North,0,9.8,13.4,67,0.00,,,0.00,WUHU216HW,2013-01-18 09:26:00,
2013-01-18 04:31:00,40.9,30.7,30.21,NNE,23,7.8,13.4,67,0.00,,,0.00,WUHU216HW,2013-01-18 09:31:00,
2013-01-18 04:36:00,40.7,31.0,30.21,North,0,8.7,13.2,68,0.00,,,0.00,WUHU216HW,2013-01-18 09:36:00,
2013-01-18 04:41:00,40.7,31.0,30.21,NW,315,7.6,12.8,68,0.00,,,0.00,WUHU216HW,2013-01-18 09:41:00,
2013-01-18 04:46:00,40.5,30.8,30.21,NNW,338,9.2,11.4,68,0.00,,,0.00,WUHU216HW,2013-01-18 09:46:00,
2013-01-18 04:51:00,40.5,30.8,30.21,North,0,6.9,11.4,68,0.00,,,0.00,WUHU216HW,2013-01-18 09:51:00,
2013-01-18 04:56:00,40.5,30.8,30.21,North,0,5.1,11.2,68,0.00,,,0.00,WUHU216HW,2013-01-18 09:56:00,
2013-01-18 05:01:00,40.5,30.8,30.22,NNW,338,7.6,11.6,68,0.00,,,0.00,WUHU216HW,2013-01-18 10:01:00,
2013-01-18 05:06:00,40.3,30.6,30.23,NW,315,11.9,12.1,68,0.00,,,0.00,WUHU216HW,2013-01-18 10:06:00,
2013-01-18 05:11:00,40.3,30.6,30.23,NNW,338,8.5,14.5,68,0.00,,,0.00,WUHU216HW,2013-01-18 10:11:00,
2013-01-18 05:16:00,40.3,30.6,30.23,NNW,338,9.6,14.5,68,0.00,,,0.00,WUHU216HW,2013-01-18 10:16:00,
2013-01-18 05:21:00,40.3,30.6,30.23,NNW,338,9.8,12.8,68,0.00,,,0.00,WUHU216HW,2013-01-18 10:21:00,
2013-01-18 05:26:00,40.3,30.6,30.24,North,0,6.9,12.8,68,0.00,,,0.00,WUHU216HW,2013-01-18 10:26:00,
2013-01-18 05:31:00,40.1,30.4,30.24,NNE,23,12.1,13.4,68,0.00,,,0.00,WUHU216HW,2013-01-18 10:31:00,
2013-01-18 05:36:00,40.1,30.4,30.24,North,0,10.5,13.4,68,0.00,,,0.00,WUHU216HW,2013-01-18 10:36:00,
2013-01-18 05:41:00,40.0,30.3,30.24,NNW,338,4.7,13.4,68,0.00,,,0.00,WUHU216HW,2013-01-18 10:41:00,
2013-01-18 05:46:00,39.8,30.1,30.24,North,0,7.6,12.3,68,0.00,,,0.00,WUHU216HW,2013-01-18 10:46:00,
2013-01-18 05:52:00,39.6,29.9,30.24,North,0,6.9,12.3,68,0.00,,,0.00,WUHU216HW,2013-01-18 10:52:00,
2013-01-18 05:56:00,39.6,29.9,30.25,NNE,23,6.3,11.4,68,0.00,,,0.00,WUHU216HW,2013-01-18 10:56:00,
2013-01-18 06:02:00,39.4,29.7,30.25,North,0,8.5,11.4,68,0.00,,,0.00,WUHU216HW,2013-01-18 11:02:00,
2013-01-18 06:07:00,39.2,29.5,30.26,NNW,338,7.4,8.7,68,0.00,,,0.00,WUHU216HW,2013-01-18 11:07:00,
2013-01-18 06:12:00,39.2,29.5,30.26,NNW,338,8.1,8.7,68,0.00,,,0.00,WUHU216HW,2013-01-18 11:12:00,
2013-01-18 06:17:00,39.2,29.5,30.26,North,0,5.4,8.3,68,0.00,,,0.00,WUHU216HW,2013-01-18 11:17:00,
2013-01-18 06:22:00,39.2,29.5,30.27,North,0,4.3,9.8,68,0.00,,,0.00,WUHU216HW,2013-01-18 11:22:00,
2013-01-18 06:27:00,39.2,29.5,30.27,NW,315,6.9,12.1,68,0.00,,,0.00,WUHU216HW,2013-01-18 11:27:00,
2013-01-18 06:32:00,39.2,29.5,30.27,North,0,7.6,12.1,68,0.00,,,0.00,WUHU216HW,2013-01-18 11:32:00,
2013-01-18 06:37:00,39.1,29.4,30.28,NW,315,0.2,12.1,68,0.00,,,0.00,WUHU216HW,2013-01-18 11:37:00,
2013-01-18 06:42:00,39.1,29.4,30.28,North,0,6.9,9.2,68,0.00,,,0.00,WUHU216HW,2013-01-18 11:42:00,
2013-01-18 06:47:00,38.9,29.2,30.28,NNW,338,8.5,9.2,68,0.00,,,0.00,WUHU216HW,2013-01-18 11:47:00,
2013-01-18 06:52:00,38.9,29.2,30.29,North,0,5.8,9.2,68,0.00,,,0.00,WUHU216HW,2013-01-18 11:52:00,
2013-01-18 06:57:00,38.7,29.0,30.30,North,0,5.4,9.2,68,0.00,,,0.00,WUHU216HW,2013-01-18 11:57:00,
2013-01-18 07:02:00,38.7,29.3,30.30,NNW,338,9.8,9.8,69,0.00,,,0.00,WUHU216HW,2013-01-18 12:02:00,
2013-01-18 07:07:00,38.5,29.3,30.30,NNW,338,4.7,9.8,69,0.00,,,0.00,WUHU216HW,2013-01-18 12:07:00,
2013-01-18 07:12:00,38.5,29.3,30.31,North,0,5.1,9.8,69,0.00,,,0.00,WUHU216HW,2013-01-18 12:12:00,
2013-01-18 07:17:00,38.5,29.3,30.31,North,0,4.5,9.2,69,0.00,,,0.00,WUHU216HW,2013-01-18 12:17:00,
2013-01-18 07:22:00,38.5,29.3,30.31,NNW,338,7.4,9.8,69,0.00,,,0.00,WUHU216HW,2013-01-18 12:22:00,
2013-01-18 07:27:00,38.5,29.3,30.32,North,0,12.1,12.1,69,0.00,,,0.00,WUHU216HW,2013-01-18 12:27:00,
2013-01-18 07:32:00,38.5,29.3,30.32,NNW,338,9.8,12.1,69,0.00,,,0.00,WUHU216HW,2013-01-18 12:32:00,
2013-01-18 07:37:00,38.5,29.3,30.33,NNE,23,9.2,12.1,69,0.00,,,0.00,WUHU216HW,2013-01-18 12:37:00,
2013-01-18 07:42:00,38.7,29.3,30.33,NW,315,7.2,11.2,69,0.00,,,0.00,WUHU216HW,2013-01-18 12:42:00,
2013-01-18 07:47:00,38.7,29.3,30.33,NE,45,6.5,10.3,69,0.00,,,0.00,WUHU216HW,2013-01-18 12:47:00,
2013-01-18 07:52:00,38.7,29.3,30.34,North,0,7.2,9.6,69,0.00,,,0.00,WUHU216HW,2013-01-18 12:52:00,
2013-01-18 07:57:00,38.9,29.5,30.35,NNW,338,5.6,9.8,69,0.00,,,0.00,WUHU216HW,2013-01-18 12:57:00,
2013-01-18 08:02:00,38.9,29.5,30.35,NW,315,10.5,10.5,69,0.00,,,0.00,WUHU216HW,2013-01-18 13:02:00,
2013-01-18 08:07:00,39.1,29.4,30.35,North,0,4.0,10.5,68,0.00,,,0.00,WUHU216HW,2013-01-18 13:07:00,
2013-01-18 08:12:00,39.1,29.4,30.36,NNW,338,6.9,10.5,68,0.00,,,0.00,WUHU216HW,2013-01-18 13:12:00,
2013-01-18 08:17:00,39.2,29.5,30.36,West,270,7.4,9.6,68,0.00,,,0.00,WUHU216HW,2013-01-18 13:17:00,
2013-01-18 08:22:00,39.2,29.5,30.37,NNW,338,9.8,9.8,68,0.00,,,0.00,WUHU216HW,2013-01-18 13:22:00,
2013-01-18 08:27:00,39.4,29.7,30.37,NW,315,4.7,9.8,68,0.00,,,0.00,WUHU216HW,2013-01-18 13:27:00,
2013-01-18 08:32:00,39.6,29.9,30.37,North,0,5.6,9.8,68,0.00,,,0.00,WUHU216HW,2013-01-18 13:32:00,
2013-01-18 08:37:00,39.6,29.9,30.38,North,0,9.4,11.2,68,0.00,,,0.00,WUHU216HW,2013-01-18 13:37:00,
2013-01-18 08:42:00,39.8,30.1,30.38,NNW,338,7.6,11.2,68,0.00,,,0.00,WUHU216HW,2013-01-18 13:42:00,
2013-01-18 08:48:00,40.0,30.3,30.39,NNW,338,10.1,10.1,68,0.00,,,0.00,WUHU216HW,2013-01-18 13:48:00,
2013-01-18 08:53:00,40.1,30.4,30.39,North,0,9.2,10.1,68,0.00,,,0.00,WUHU216HW,2013-01-18 13:53:00,
2013-01-18 08:58:00,40.3,30.6,30.40,NNW,338,7.8,10.1,68,0.00,,,0.00,WUHU216HW,2013-01-18 13:58:00,
2013-01-18 09:03:00,40.3,30.6,30.40,NNW,338,5.6,8.5,68,0.00,,,0.00,WUHU216HW,2013-01-18 14:03:00,
2013-01-18 09:08:00,40.7,31.0,30.40,NW,315,8.3,9.8,68,0.00,,,0.00,WUHU216HW,2013-01-18 14:08:00,
2013-01-18 09:13:00,40.9,31.2,30.40,WNW,293,6.7,9.8,68,0.00,,,0.00,WUHU216HW,2013-01-18 14:13:00,
2013-01-18 09:18:00,40.9,31.2,30.41,NW,315,4.9,8.3,68,0.00,,,0.00,WUHU216HW,2013-01-18 14:18:00,
2013-01-18 09:23:00,41.4,31.7,30.41,NW,315,7.2,9.6,68,0.00,,,0.00,WUHU216HW,2013-01-18 14:23:00,
2013-01-18 09:28:00,41.4,31.7,30.42,NW,315,7.6,9.6,68,0.00,,,0.00,WUHU216HW,2013-01-18 14:28:00,
2013-01-18 09:33:00,41.4,31.7,30.42,NNW,338,6.3,10.5,68,0.00,,,0.00,WUHU216HW,2013-01-18 14:33:00,
2013-01-18 09:38:00,41.6,32.2,30.42,North,0,10.5,10.5,69,0.00,,,0.00,WUHU216HW,2013-01-18 14:38:00,
2013-01-18 09:43:00,41.6,32.2,30.43,North,0,11.4,13.9,69,0.00,,,0.00,WUHU216HW,2013-01-18 14:43:00,
2013-01-18 09:48:00,41.8,32.8,30.43,North,0,13.0,13.9,70,0.00,,,0.00,WUHU216HW,2013-01-18 14:48:00,
2013-01-18 09:53:00,41.9,33.3,30.43,North,0,10.5,13.0,71,0.00,,,0.00,WUHU216HW,2013-01-18 14:53:00,
2013-01-18 09:58:00,42.1,33.5,30.43,NW,315,8.9,13.0,71,0.00,,,0.00,WUHU216HW,2013-01-18 14:58:00,
2013-01-18 10:03:00,42.5,33.9,30.43,NW,315,8.7,11.2,71,0.00,,,0.00,WUHU216HW,2013-01-18 15:03:00,
2013-01-18 10:08:00,42.8,33.8,30.43,NNW,338,10.1,10.5,70,0.00,,,0.00,WUHU216HW,2013-01-18 15:08:00,
2013-01-18 10:13:00,43.2,34.2,30.44,ENE,68,5.1,10.5,70,0.00,,,0.00,WUHU216HW,2013-01-18 15:13:00,
2013-01-18 10:18:00,43.6,34.5,30.44,North,0,8.1,11.4,70,0.00,,,0.00,WUHU216HW,2013-01-18 15:18:00,
2013-01-18 10:23:00,44.1,35.0,30.44,ENE,68,4.3,11.4,70,0.00,,,0.00,WUHU216HW,2013-01-18 15:23:00,
2013-01-18 10:28:00,44.1,34.6,30.43,NE,45,7.6,13.4,69,0.00,,,0.00,WUHU216HW,2013-01-18 15:28:00,
2013-01-18 10:33:00,44.5,34.9,30.44,North,0,13.4,13.4,69,0.00,,,0.00,WUHU216HW,2013-01-18 15:33:00,
2013-01-18 10:38:00,44.5,34.6,30.44,NE,45,7.2,13.4,68,0.00,,,0.00,WUHU216HW,2013-01-18 15:38:00,
2013-01-18 10:44:00,44.8,34.9,30.44,North,0,4.0,9.8,68,0.00,,,0.00,WUHU216HW,2013-01-18 15:44:00,
2013-01-18 10:49:00,45.4,35.4,30.44,NNE,23,0.9,6.3,68,0.00,,,0.00,WUHU216HW,2013-01-18 15:49:00,
2013-01-18 10:54:00,45.7,35.7,30.44,North,0,0.0,6.3,68,0.00,,,0.00,WUHU216HW,2013-01-18 15:54:00,
2013-01-18 10:59:00,46.1,36.1,30.44,NNW,338,4.9,4.9,68,0.00,,,0.00,WUHU216HW,2013-01-18 15:59:00,
2013-01-18 11:04:00,46.1,35.4,30.44,NE,45,5.6,15.9,66,0.00,,,0.00,WUHU216HW,2013-01-18 16:04:00,
2013-01-18 11:09:00,46.1,35.4,30.44,NNE,23,6.5,15.9,66,0.00,,,0.00,WUHU216HW,2013-01-18 16:09:00,
2013-01-18 11:14:00,46.4,35.6,30.44,North,0,0.0,6.7,66,0.00,,,0.00,WUHU216HW,2013-01-18 16:14:00,
2013-01-18 11:19:00,47.2,36.0,30.43,North,0,0.0,6.5,65,0.00,,,0.00,WUHU216HW,2013-01-18 16:19:00,
2013-01-18 11:24:00,47.5,35.6,30.43,North,0,0.0,0.0,63,0.00,,,0.00,WUHU216HW,2013-01-18 16:24:00,
2013-01-18 11:29:00,47.5,35.2,30.43,North,0,0.0,0.0,62,0.00,,,0.00,WUHU216HW,2013-01-18 16:29:00,
2013-01-18 11:34:00,47.5,35.6,30.43,North,0,0.0,0.0,63,0.00,,,0.00,WUHU216HW,2013-01-18 16:34:00,
2013-01-18 11:39:00,47.9,35.5,30.43,North,0,0.0,0.0,62,0.00,,,0.00,WUHU216HW,2013-01-18 16:39:00,
2013-01-18 11:44:00,47.9,35.9,30.43,North,0,0.0,0.0,63,0.00,,,0.00,WUHU216HW,2013-01-18 16:44:00,
2013-01-18 11:49:00,48.2,35.8,30.43,North,0,0.0,0.0,62,0.00,,,0.00,WUHU216HW,2013-01-18 16:49:00,
2013-01-18 11:54:00,48.6,35.5,30.43,North,0,0.0,0.0,60,0.00,,,0.00,WUHU216HW,2013-01-18 16:54:00,
2013-01-18 11:59:00,48.6,34.9,30.42,North,0,0.0,0.0,59,0.00,,,0.00,WUHU216HW,2013-01-18 16:59:00,
2013-01-18 12:04:00,49.0,35.7,30.42,North,0,0.0,0.0,60,0.00,,,0.00,WUHU216HW,2013-01-18 17:04:00,
2013-01-18 12:09:00,49.1,35.9,30.42,North,0,0.0,0.0,60,0.00,,,0.00,WUHU216HW,2013-01-18 17:09:00,
2013-01-18 12:14:00,49.3,34.2,30.42,North,0,0.0,0.0,56,0.00,,,0.00,WUHU216HW,2013-01-18 17:14:00,
2013-01-18 12:20:00,49.5,34.4,30.42,North,0,0.0,0.0,56,0.00,,,0.00,WUHU216HW,2013-01-18 17:20:00,
2013-01-18 12:25:00,49.5,35.8,30.41,North,0,0.0,0.0,59,0.00,,,0.00,WUHU216HW,2013-01-18 17:25:00,
2013-01-18 12:30:00,49.5,33.9,30.41,North,0,0.0,0.0,55,0.00,,,0.00,WUHU216HW,2013-01-18 17:30:00,
2013-01-18 12:35:00,49.9,35.2,30.41,North,0,0.0,0.0,57,0.00,,,0.00,WUHU216HW,2013-01-18 17:35:00,
2013-01-18 12:40:00,49.9,35.2,30.41,North,0,0.0,0.0,57,0.00,,,0.00,WUHU216HW,2013-01-18 17:40:00,
2013-01-18 12:45:00,49.9,34.7,30.41,North,0,0.0,0.0,56,0.00,,,0.00,WUHU216HW,2013-01-18 17:45:00,
2013-01-18 12:50:00,49.7,35.5,30.41,North,0,0.0,0.0,58,0.00,,,0.00,WUHU216HW,2013-01-18 17:50:00,
2013-01-18 12:55:00,49.7,35.0,30.41,North,0,0.0,0.0,57,0.00,,,0.00,WUHU216HW,2013-01-18 17:55:00,
2013-01-18 13:00:00,49.9,35.6,30.40,North,0,0.0,0.0,58,0.00,,,0.00,WUHU216HW,2013-01-18 18:00:00,
2013-01-18 13:05:00,49.9,35.2,30.40,North,0,0.0,0.0,57,0.00,,,0.00,WUHU216HW,2013-01-18 18:05:00,
2013-01-18 13:10:00,49.9,34.7,30.40,North,0,0.0,0.0,56,0.00,,,0.00,WUHU216HW,2013-01-18 18:10:00,
2013-01-18 13:15:00,50.2,35.1,30.40,North,0,0.0,0.0,56,0.00,,,0.00,WUHU216HW,2013-01-18 18:15:00,
2013-01-18 13:20:00,50.4,35.7,30.41,North,0,0.0,0.0,57,0.00,,,0.00,WUHU216HW,2013-01-18 18:20:00,
2013-01-18 13:25:00,50.8,35.6,30.41,North,0,0.0,0.0,56,0.00,,,0.00,WUHU216HW,2013-01-18 18:25:00,
2013-01-18 13:30:00,50.9,34.8,30.40,North,0,0.0,0.0,54,0.00,,,0.00,WUHU216HW,2013-01-18 18:30:00,
2013-01-18 13:35:00,50.8,34.2,30.40,North,0,0.0,0.0,53,0.00,,,0.00,WUHU216HW,2013-01-18 18:35:00,
2013-01-18 13:40:00,50.8,35.1,30.40,North,0,0.0,0.0,55,0.00,,,0.00,WUHU216HW,2013-01-18 18:40:00,
2013-01-18 13:45:00,50.6,34.5,30.40,North,0,0.0,0.0,54,0.00,,,0.00,WUHU216HW,2013-01-18 18:45:00,
2013-01-18 13:50:00,50.9,34.8,30.40,North,0,0.0,0.0,54,0.00,,,0.00,WUHU216HW,2013-01-18 18:50:00,
2013-01-18 13:55:00,51.5,33.9,30.40,North,0,0.0,0.0,51,0.00,,,0.00,WUHU216HW,2013-01-18 18:55:00,
2013-01-18 14:00:00,51.8,35.2,30.40,North,0,0.0,0.0,53,0.00,,,0.00,WUHU216HW,2013-01-18 19:00:00,
2013-01-18 14:06:00,51.8,34.3,30.40,North,0,0.0,0.0,51,0.00,,,0.00,WUHU216HW,2013-01-18 19:06:00,
2013-01-18 14:11:00,51.5,32.9,30.40,North,0,0.0,0.0,49,0.00,,,0.00,WUHU216HW,2013-01-18 19:11:00,
2013-01-18 14:16:00,51.3,34.8,30.40,North,0,0.0,0.0,53,0.00,,,0.00,WUHU216HW,2013-01-18 19:16:00,
2013-01-18 14:21:00,51.5,34.8,30.40,North,0,0.0,0.0,53,0.00,,,0.00,WUHU216HW,2013-01-18 19:21:00,
2013-01-18 14:26:00,51.1,35.5,30.40,North,0,0.0,0.0,55,0.00,,,0.00,WUHU216HW,2013-01-18 19:26:00,
2013-01-18 14:31:00,51.1,35.0,30.40,North,0,0.0,0.0,54,0.00,,,0.00,WUHU216HW,2013-01-18 19:31:00,
2013-01-18 14:36:00,51.5,34.8,30.40,North,0,0.0,0.0,53,0.00,,,0.00,WUHU216HW,2013-01-18 19:36:00,
2013-01-18 14:41:00,51.3,34.3,30.41,North,0,0.0,0.0,52,0.00,,,0.00,WUHU216HW,2013-01-18 19:41:00,
2013-01-18 14:46:00,51.1,34.1,30.41,North,0,0.0,0.0,52,0.00,,,0.00,WUHU216HW,2013-01-18 19:46:00,
2013-01-18 14:51:00,51.5,34.4,30.41,North,0,0.0,0.0,52,0.00,,,0.00,WUHU216HW,2013-01-18 19:51:00,
2013-01-18 14:56:00,51.3,33.9,30.41,North,0,0.0,0.0,51,0.00,,,0.00,WUHU216HW,2013-01-18 19:56:00,
2013-01-18 15:01:00,51.3,33.9,30.42,North,0,0.0,0.0,51,0.00,,,0.00,WUHU216HW,2013-01-18 20:01:00,
2013-01-18 15:06:00,51.3,33.4,30.42,North,0,0.0,0.0,50,0.00,,,0.00,WUHU216HW,2013-01-18 20:06:00,
2013-01-18 15:11:00,51.3,34.3,30.42,NE,45,12.8,13.0,52,0.00,,,0.00,WUHU216HW,2013-01-18 20:11:00,
2013-01-18 15:16:00,51.3,34.3,30.42,ENE,68,16.3,16.3,52,0.00,,,0.00,WUHU216HW,2013-01-18 20:16:00,
2013-01-18 15:21:00,51.5,33.9,30.42,ENE,68,16.3,16.3,51,0.00,,,0.00,WUHU216HW,2013-01-18 20:21:00,
2013-01-18 15:26:00,51.3,35.2,30.42,ENE,68,9.6,16.3,54,0.00,,,0.00,WUHU216HW,2013-01-18 20:26:00,
2013-01-18 15:31:00,51.1,34.6,30.43,ENE,68,13.6,16.3,53,0.00,,,0.00,WUHU216HW,2013-01-18 20:31:00,
2013-01-18 15:37:00,51.3,34.8,30.43,NE,45,13.4,16.3,53,0.00,,,0.00,WUHU216HW,2013-01-18 20:37:00,
2013-01-18 15:42:00,51.1,33.7,30.43,ENE,68,13.2,16.3,51,0.00,,,0.00,WUHU216HW,2013-01-18 20:42:00,
2013-01-18 15:47:00,51.3,35.2,30.43,ENE,68,11.4,16.3,54,0.00,,,0.00,WUHU216HW,2013-01-18 20:47:00,
2013-01-18 15:52:00,51.1,35.0,30.43,ENE,68,15.0,15.0,54,0.00,,,0.00,WUHU216HW,2013-01-18 20:52:00,
2013-01-18 15:57:00,50.9,34.4,30.43,NE,45,15.9,15.9,53,0.00,,,0.00,WUHU216HW,2013-01-18 20:57:00,
2013-01-18 16:02:00,50.8,33.8,30.44,NE,45,13.9,15.9,52,0.00,,,0.00,WUHU216HW,2013-01-18 21:02:00,
2013-01-18 16:07:00,50.8,32.9,30.44,ENE,68,16.8,16.8,50,0.00,,,0.00,WUHU216HW,2013-01-18 21:07:00,
2013-01-18 16:12:00,50.8,34.7,30.44,ENE,68,15.2,17.0,54,0.00,,,0.00,WUHU216HW,2013-01-18 21:12:00,
2013-01-18 16:17:00,50.8,34.2,30.45,ENE,68,9.8,17.0,53,0.00,,,0.00,WUHU216HW,2013-01-18 21:17:00,
2013-01-18 16:22:00,50.8,34.2,30.45,ENE,68,13.2,14.3,53,0.00,,,0.00,WUHU216HW,2013-01-18 21:22:00,
2013-01-18 16:27:00,50.8,33.3,30.45,ENE,68,14.5,14.5,51,0.00,,,0.00,WUHU216HW,2013-01-18 21:27:00,
2013-01-18 16:32:00,50.8,34.7,30.45,East,90,11.0,16.3,54,0.00,,,0.00,WUHU216HW,2013-01-18 21:32:00,
2013-01-18 16:37:00,50.4,33.5,30.46,ENE,68,12.1,16.3,52,0.00,,,0.00,WUHU216HW,2013-01-18 21:37:00,
2013-01-18 16:42:00,50.4,33.5,30.46,ENE,68,14.3,15.7,52,0.00,,,0.00,WUHU216HW,2013-01-18 21:42:00,
2013-01-18 16:47:00,50.2,32.4,30.46,ENE,68,17.0,17.0,50,0.00,,,0.00,WUHU216HW,2013-01-18 21:47:00,
2013-01-18 16:52:00,50.0,32.2,30.46,East,90,15.7,17.0,50,0.00,,,0.00,WUHU216HW,2013-01-18 21:52:00,
2013-01-18 16:57:00,50.0,33.6,30.46,ENE,68,14.3,15.7,53,0.00,,,0.00,WUHU216HW,2013-01-18 21:57:00,
2013-01-18 17:02:00,49.9,33.4,30.47,NE,45,15.2,16.3,53,0.00,,,0.00,WUHU216HW,2013-01-18 22:02:00,
2013-01-18 17:07:00,49.9,33.4,30.47,East,90,12.5,16.3,53,0.00,,,0.00,WUHU216HW,2013-01-18 22:07:00,
2013-01-18 17:12:00,49.7,32.8,30.47,ENE,68,13.2,15.9,52,0.00,,,0.00,WUHU216HW,2013-01-18 22:12:00,
2013-01-18 17:17:00,49.3,32.4,30.46,ENE,68,9.8,16.1,52,0.00,,,0.00,WUHU216HW,2013-01-18 22:17:00,
2013-01-18 17:22:00,49.1,32.7,30.47,ENE,68,14.8,16.1,53,0.00,,,0.00,WUHU216HW,2013-01-18 22:22:00,
2013-01-18 17:27:00,49.0,32.9,30.47,ENE,68,15.2,15.9,54,0.00,,,0.00,WUHU216HW,2013-01-18 22:27:00,
2013-01-18 17:32:00,49.0,32.9,30.47,NE,45,9.8,15.9,54,0.00,,,0.00,WUHU216HW,2013-01-18 22:32:00,
2013-01-18 17:37:00,48.8,32.3,30.47,ENE,68,13.2,15.2,53,0.00,,,0.00,WUHU216HW,2013-01-18 22:37:00,
2013-01-18 17:42:00,48.6,32.7,30.47,ESE,113,11.0,13.2,54,0.00,,,0.00,WUHU216HW,2013-01-18 22:42:00,
2013-01-18 17:47:00,48.6,31.7,30.47,ENE,68,11.9,16.8,52,0.00,,,0.00,WUHU216HW,2013-01-18 22:47:00,
2013-01-18 17:52:00,48.6,33.6,30.48,ENE,68,9.4,16.8,56,0.00,,,0.00,WUHU216HW,2013-01-18 22:52:00,
2013-01-18 17:58:00,48.4,32.1,30.48,NE,45,9.8,14.3,53,0.00,,,0.00,WUHU216HW,2013-01-18 22:58:00,
2013-01-18 18:03:00,48.2,31.9,30.48,East,90,10.5,12.8,53,0.00,,,0.00,WUHU216HW,2013-01-18 23:03:00,
2013-01-18 18:08:00,48.1,31.7,30.48,East,90,10.5,12.8,53,0.00,,,0.00,WUHU216HW,2013-01-18 23:08:00,
2013-01-18 18:13:00,48.2,31.9,30.48,North,0,0.0,10.5,53,0.00,,,0.00,WUHU216HW,2013-01-18 23:13:00,
2013-01-18 18:18:00,48.2,31.9,30.48,North,0,0.0,0.0,53,0.00,,,0.00,WUHU216HW,2013-01-18 23:18:00,
2013-01-18 18:23:00,47.9,31.5,30.48,ENE,68,4.5,4.5,53,0.00,,,0.00,WUHU216HW,2013-01-18 23:23:00,
2013-01-18 18:28:00,47.5,31.1,30.49,NNE,23,8.5,11.4,53,0.00,,,0.00,WUHU216HW,2013-01-18 23:28:00,
2013-01-18 18:33:00,47.5,31.6,30.49,ENE,68,6.5,11.4,54,0.00,,,0.00,WUHU216HW,2013-01-18 23:33:00,
2013-01-18 18:38:00,46.8,31.9,30.49,NNW,338,6.3,9.8,56,0.00,,,0.00,WUHU216HW,2013-01-18 23:38:00,
2013-01-18 18:43:00,46.4,32.0,30.49,NNE,23,3.1,8.7,57,0.00,,,0.00,WUHU216HW,2013-01-18 23:43:00,
2013-01-18 18:48:00,46.1,31.6,30.50,North,0,2.5,6.5,57,0.00,,,0.00,WUHU216HW,2013-01-18 23:48:00,
2013-01-18 18:53:00,45.7,31.3,30.50,North,0,3.6,6.5,57,0.00,,,0.00,WUHU216HW,2013-01-18 23:53:00,
2013-01-18 18:58:00,45.7,31.8,30.50,NW,315,2.9,5.1,58,0.00,,,0.00,WUHU216HW,2013-01-18 23:58:00,
2013-01-18 19:03:00,45.5,31.6,30.50,NNW,338,2.5,5.1,58,0.00,,,0.00,WUHU216HW,2013-01-19 00:03:00,
2013-01-18 19:08:00,45.4,31.4,30.50,NNW,338,4.7,4.7,58,0.00,,,0.00,WUHU216HW,2013-01-19 00:08:00,
2013-01-18 19:13:00,45.2,31.7,30.51,NNE,23,3.4,4.7,59,0.00,,,0.00,WUHU216HW,2013-01-19 00:13:00,
2013-01-18 19:18:00,45.2,31.7,30.51,North,0,0.2,4.3,59,0.00,,,0.00,WUHU216HW,2013-01-19 00:18:00,
2013-01-18 19:23:00,45.0,31.6,30.51,NNE,23,2.5,4.3,59,0.00,,,0.00,WUHU216HW,2013-01-19 00:23:00,
2013-01-18 19:28:00,45.0,32.1,30.51,North,0,4.3,6.3,60,0.00,,,0.00,WUHU216HW,2013-01-19 00:28:00,
2013-01-18 19:33:00,44.8,31.9,30.51,NNE,23,0.2,6.3,60,0.00,,,0.00,WUHU216HW,2013-01-19 00:33:00,
2013-01-18 19:38:00,44.6,31.7,30.51,North,0,2.5,3.8,60,0.00,,,0.00,WUHU216HW,2013-01-19 00:38:00,
2013-01-18 19:43:00,44.6,31.7,30.51,NNW,338,3.4,4.0,60,0.00,,,0.00,WUHU216HW,2013-01-19 00:43:00,
2013-01-18 19:49:00,44.6,31.7,30.51,NNW,338,4.3,5.1,60,0.00,,,0.00,WUHU216HW,2013-01-19 00:49:00,
2013-01-18 19:54:00,44.5,31.5,30.51,West,270,0.4,5.4,60,0.00,,,0.00,WUHU216HW,2013-01-19 00:54:00,
2013-01-18 19:59:00,44.3,31.3,30.51,North,0,3.1,5.4,60,0.00,,,0.00,WUHU216HW,2013-01-19 00:59:00,
2013-01-18 20:04:00,44.3,31.7,30.51,NNW,338,3.1,4.5,61,0.00,,,0.00,WUHU216HW,2013-01-19 01:04:00,
2013-01-18 20:09:00,44.3,31.7,30.51,North,0,0.0,4.0,61,0.00,,,0.00,WUHU216HW,2013-01-19 01:09:00,
2013-01-18 20:14:00,44.3,31.7,30.51,North,0,2.5,5.4,61,0.00,,,0.00,WUHU216HW,2013-01-19 01:14:00,
2013-01-18 20:19:00,44.3,31.7,30.51,NNE,23,4.7,5.4,61,0.00,,,0.00,WUHU216HW,2013-01-19 01:19:00,
2013-01-18 20:24:00,44.3,31.7,30.51,NNW,338,4.0,6.3,61,0.00,,,0.00,WUHU216HW,2013-01-19 01:24:00,
2013-01-18 20:29:00,44.3,31.7,30.51,NNW,338,1.8,6.3,61,0.00,,,0.00,WUHU216HW,2013-01-19 01:29:00,
2013-01-18 20:34:00,44.1,31.5,30.50,North,0,4.5,5.1,61,0.00,,,0.00,WUHU216HW,2013-01-19 01:34:00,
2013-01-18 20:39:00,44.1,31.5,30.50,North,0,4.7,5.8,61,0.00,,,0.00,WUHU216HW,2013-01-19 01:39:00,
2013-01-18 20:44:00,44.1,32.0,30.50,North,0,6.0,8.1,62,0.00,,,0.00,WUHU216HW,2013-01-19 01:44:00,
2013-01-18 20:49:00,44.1,32.0,30.51,NNW,338,4.3,8.1,62,0.00,,,0.00,WUHU216HW,2013-01-19 01:49:00,
2013-01-18 20:54:00,44.1,32.0,30.51,NE,45,2.9,7.2,62,0.00,,,0.00,WUHU216HW,2013-01-19 01:54:00,
2013-01-18 20:59:00,43.9,32.1,30.51,North,0,4.3,4.9,63,0.00,,,0.00,WUHU216HW,2013-01-19 01:59:00,
2013-01-18 21:04:00,43.9,32.1,30.51,NE,45,4.7,6.3,63,0.00,,,0.00,WUHU216HW,2013-01-19 02:04:00,
2013-01-18 21:10:00,43.6,32.1,30.51,North,0,3.4,4.7,64,0.00,,,0.00,WUHU216HW,2013-01-19 02:10:00,
2013-01-18 21:15:00,43.6,32.6,30.51,NE,45,4.0,4.3,65,0.00,,,0.00,WUHU216HW,2013-01-19 02:15:00,
2013-01-18 21:20:00,45.2,34.1,30.51,NE,45,15.7,15.7,65,0.00,,,0.00,WUHU216HW,2013-01-19 02:20:00,
2013-01-18 21:25:00,45.9,34.7,30.51,ENE,68,15.0,15.7,65,0.00,,,0.00,WUHU216HW,2013-01-19 02:25:00,
2013-01-18 21:30:00,46.4,34.5,30.50,ENE,68,12.1,17.9,63,0.00,,,0.00,WUHU216HW,2013-01-19 02:30:00,
2013-01-18 21:35:00,46.4,34.5,30.50,ENE,68,15.4,17.9,63,0.00,,,0.00,WUHU216HW,2013-01-19 02:35:00,
2013-01-18 21:40:00,46.6,34.7,30.50,NE,45,15.7,16.3,63,0.00,,,0.00,WUHU216HW,2013-01-19 02:40:00,
2013-01-18 21:45:00,46.6,34.3,30.51,ENE,68,15.7,16.3,62,0.00,,,0.00,WUHU216HW,2013-01-19 02:45:00,
2013-01-18 21:50:00,46.6,34.7,30.50,ENE,68,13.6,16.3,63,0.00,,,0.00,WUHU216HW,2013-01-19 02:50:00,
2013-01-18 21:55:00,46.6,35.1,30.50,ENE,68,9.2,15.7,64,0.00,,,0.00,WUHU216HW,2013-01-19 02:55:00,
2013-01-18 22:00:00,46.6,35.1,30.50,NE,45,15.0,15.9,64,0.00,,,0.00,WUHU216HW,2013-01-19 03:00:00,
2013-01-18 22:05:00,46.4,34.9,30.50,ENE,68,13.2,15.9,64,0.00,,,0.00,WUHU216HW,2013-01-19 03:05:00,
2013-01-18 22:10:00,46.4,34.9,30.50,ENE,68,12.1,17.9,64,0.00,,,0.00,WUHU216HW,2013-01-19 03:10:00,
2013-01-18 22:15:00,46.3,34.3,30.49,ENE,68,15.9,17.9,63,0.00,,,0.00,WUHU216HW,2013-01-19 03:15:00,
2013-01-18 22:20:00,46.4,34.5,30.50,ENE,68,14.8,16.3,63,0.00,,,0.00,WUHU216HW,2013-01-19 03:20:00,
2013-01-18 22:25:00,46.4,34.1,30.50,ENE,68,14.8,15.4,62,0.00,,,0.00,WUHU216HW,2013-01-19 03:25:00,
2013-01-18 22:30:00,46.4,34.1,30.50,East,90,12.5,16.3,62,0.00,,,0.00,WUHU216HW,2013-01-19 03:30:00,
2013-01-18 22:35:00,46.3,34.3,30.50,NNE,23,11.4,16.3,63,0.00,,,0.00,WUHU216HW,2013-01-19 03:35:00,
2013-01-18 22:40:00,46.3,34.3,30.50,ENE,68,12.1,15.2,63,0.00,,,0.00,WUHU216HW,2013-01-19 03:40:00,
2013-01-18 22:45:00,46.3,34.8,30.50,North,0,11.4,16.6,64,0.00,,,0.00,WUHU216HW,2013-01-19 03:45:00,
2013-01-18 22:50:00,46.3,34.3,30.49,ENE,68,12.3,16.6,63,0.00,,,0.00,WUHU216HW,2013-01-19 03:50:00,
2013-01-18 22:55:00,46.3,33.9,30.49,ENE,68,15.7,16.3,62,0.00,,,0.00,WUHU216HW,2013-01-19 03:55:00,
2013-01-18 23:00:00,46.3,34.3,30.49,ENE,68,14.5,16.1,63,0.00,,,0.00,WUHU216HW,2013-01-19 04:00:00,
2013-01-18 23:05:00,46.1,34.6,30.49,ENE,68,12.5,14.5,64,0.00,,,0.00,WUHU216HW,2013-01-19 04:05:00,
2013-01-18 23:10:00,46.1,34.1,30.49,ENE,68,11.6,15.7,63,0.00,,,0.00,WUHU216HW,2013-01-19 04:10:00,
2013-01-18 23:16:00,46.1,34.1,30.49,NE,45,10.3,15.7,63,0.00,,,0.00,WUHU216HW,2013-01-19 04:16:00,
2013-01-18 23:21:00,45.9,34.4,30.49,NE,45,12.5,16.3,64,0.00,,,0.00,WUHU216HW,2013-01-19 04:21:00,
2013-01-18 23:26:00,46.1,34.1,30.49,East,90,14.3,16.3,63,0.00,,,0.00,WUHU216HW,2013-01-19 04:26:00,
2013-01-18 23:31:00,46.1,34.9,30.49,East,90,12.1,14.8,65,0.00,,,0.00,WUHU216HW,2013-01-19 04:31:00,
2013-01-18 23:36:00,45.7,34.2,30.49,ESE,113,12.8,13.4,64,0.00,,,0.00,WUHU216HW,2013-01-19 04:36:00,
2013-01-18 23:41:00,45.7,34.2,30.49,ENE,68,10.3,15.0,64,0.00,,,0.00,WUHU216HW,2013-01-19 04:41:00,
2013-01-18 23:46:00,45.7,34.2,30.49,ENE,68,12.1,12.1,64,0.00,,,0.00,WUHU216HW,2013-01-19 04:46:00,
2013-01-18 23:51:00,45.7,33.4,30.49,NE,45,14.1,15.0,62,0.00,,,0.00,WUHU216HW,2013-01-19 04:51:00,
2013-01-18 23:56:00,45.9,34.4,30.49,ENE,68,9.8,15.0,64,0.00,,,0.00,WUHU216HW,2013-01-19 04:56:00,